Tracking 30308 objects as of 19-Apr-2025
HD Live streaming from Space Station
objects crossing your sky now

STARLINK-4045

Track STARLINK-4045 now!
10-day predictions
STARLINK-4045 is classified as:


NORAD ID: 53152
Int'l Code: 2022-083W
Perigee: 545.9 km
Apogee: 548.0 km
Inclination: 53.2 °
Period: 95.4 minutes
Semi major axis: 6917 km
RCS: Unknown
Launch date: July 17, 2022
Source: United States (US)
Launch site: AIR FORCE EASTERN TEST RANGE (AFETR)
Your satellite tracking list
Your tracking list is empty




NASA's NSSDC Master Catalog

Two Line Element Set (TLE):
1 53152U 22083W   25109.23171814  .00002070  00000-0  14815-3 0  9996
2 53152  53.2166 180.6684 0001516 109.7194 250.3961 15.08829540153005
Source of the keplerian elements: AFSPC